Flag for Mauritania Weather past 2 weeks in Nouakchott, Mauritania

Now
84 °F

Clear.


Feels Like: 82 °F
Forecast: 71 / 90 °F
Wind: 14 mph from Northeast

Location: Nouakchott Airport

Current Time: May 23, 2015 at 11:10:26 AM

Latest Report: May 23, 2015 at 10:30 AM


Visibility: 4 mi

Pressure: 29.98 "Hg

Humidity: 31%

Dew point: 50 °F

Location of NouakchottLocation

Historic Weather in Nouakchott — Graph

°F

Nouakchott temperature yesterday

Maximum temperature yesterday: 99 °F (at 1:00 PM)
Minimum temperature yesterday: 72 °F (at 7:00 AM)
Average temperature yesterday: 81 °F

Past Weeks' High & Low Weather Summary

 TemperatureHumidityPressure
High113 °F (May 8, 2:00 PM)94% (May 18, 5:00 AM)32.75 "Hg (May 18, 5:00 AM)
Low66 °F (May 12, 3:00 AM)4% (May 8, 2:30 PM)29.74 "Hg (May 8, 4:00 PM)
Average77 °F67%29.85 "Hg
* Reported May 8 10:00 AM — May 23 10:00 AM, Nouakchott, Weather by CustomWeather, © 2015

Note: Actual official high and low records may vary slightly from our data, if they occured in-between our weather recording intervals... More about our weather records

Advertising

Nouakchott weather history for previous 24 hours

 ConditionsComfort  
Time TempWeatherWind HumidityBarometerVisibility
10:00 AM
Sat, May 23
81 °FClear.13 mph37%29.98 "Hg4 mi
9:30 AM79 °FClear.13 mph39%29.98 "Hg4 mi
9:00 AM75 °FClear.13 mph47%29.98 "Hg4 mi
8:30 AM73 °FClear.14 mph50%29.98 "Hg4 mi
8:00 AM72 °FClear.12 mph53%29.95 "Hg4 mi
7:30 AM70 °FLow level haze.10 mph57%29.95 "Hg3 mi
7:00 AM68 °FLow level haze.10 mph60%29.95 "Hg3 mi
6:30 AM70 °FClear.8 mph57%29.95 "Hg4 mi
6:00 AM70 °FClear.12 mph60%29.92 "Hg4 mi
5:30 AM70 °FClear.10 mph60%29.95 "Hg4 mi
5:00 AM70 °FClear.10 mph60%29.92 "Hg4 mi
4:30 AM72 °FClear.10 mph61%29.95 "Hg4 mi
4:00 AM72 °FClear.9 mph61%29.92 "Hg4 mi
3:30 AM72 °FClear.13 mph65%29.92 "Hg4 mi
3:00 AM72 °FClear.13 mph65%29.92 "Hg4 mi
2:30 AM72 °FClear.12 mph73%29.92 "Hg4 mi
2:00 AM72 °FClear.7 mph83%29.95 "Hg4 mi
1:30 AM72 °FClear.8 mph83%29.95 "Hg4 mi
1:00 AM72 °FClear.12 mph78%29.95 "Hg4 mi
12:30 AM72 °FClear.14 mph78%29.95 "Hg4 mi
12:00 AM72 °FClear.14 mph78%29.95 "Hg4 mi
11:30 PM
Fri, May 22
72 °FClear.15 mph78%29.98 "Hg4 mi
11:00 PM73 °FClear.15 mph69%29.98 "Hg4 mi
10:30 PM73 °FClear.15 mph69%29.95 "Hg4 mi
10:00 PM75 °FClear.13 mph61%29.95 "Hg4 mi
9:30 PM75 °FClear.14 mph61%29.95 "Hg4 mi
9:00 PM75 °FClear.13 mph61%29.95 "Hg4 mi
8:30 PM77 °FClear.15 mph57%29.95 "Hg4 mi
8:00 PM77 °FClear.15 mph57%29.92 "Hg4 mi
7:30 PM79 °FClear.13 mph58%29.92 "Hg4 mi
7:00 PM81 °FClear.15 mph51%29.92 "Hg4 mi
6:30 PM81 °FClear.15 mph54%29.92 "Hg4 mi
6:00 PM82 °FClear.17 mph48%29.92 "Hg4 mi
5:30 PM86 °FClear.16 mph43%29.92 "Hg4 mi
5:00 PM86 °FClear.15 mph40%29.92 "Hg4 mi
4:30 PM88 °FClear.15 mph38%29.92 "Hg4 mi
4:00 PM88 °FClear.15 mph35%29.92 "Hg4 mi
3:30 PM91 °FClear.15 mph28%29.92 "Hg4 mi
3:00 PM91 °FClear.14 mph28%29.92 "Hg4 mi
2:30 PM93 °FClear.13 mph24%29.92 "Hg4 mi
2:00 PM95 °FClear.13 mph25%29.95 "Hg4 mi
1:30 PM95 °FClear.12 mph26%29.95 "Hg4 mi
1:00 PM99 °FClear.9 mph14%29.95 "Hg4 mi
12:30 PM95 °FClear.10 mph16%29.95 "Hg4 mi
12:00 PM93 °FClear.12 mph19%29.98 "Hg4 mi
11:30 AM91 °FClear.13 mph18%29.98 "Hg4 mi
11:00 AM90 °FClear.12 mph21%30.01 "Hg4 mi
Weather by CustomWeather, © 2015

See weather overviewHow to use our weather pages